This is the latest recevied weather packets stored in our database for station/object G1SCQ. If no packets are shown the sender has not sent any weather packets the latest 10 day(s).
| Time | Temp. | Humidity | Pressure | Rain* | Wind** | Luminosity | Snow |
|---|---|---|---|---|---|---|---|
| 1778344565 | 15.56° C | 53% | 1018.4 hPa | 0 mm | - | 164 W/m² | - |
| 1778344025 | 16.11° C | 48% | 1018.5 hPa | 0 mm | - | 200 W/m² | - |
| 1778343485 | 16.67° C | 49% | 1018.4 hPa | 0 mm | - | 304 W/m² | - |
| 1778342945 | 17.22° C | 50% | 1018.5 hPa | 0 mm | - | 352 W/m² | - |
| 1778342405 | 17.22° C | 47% | 1018.2 hPa | 0 mm | - | 405 W/m² | - |
| 1778342045 | 17.22° C | 45% | 1018.1 hPa | 0 mm | - | 414 W/m² | - |
| 1778341505 | 17.22° C | 45% | 1018.3 hPa | 0 mm | - | 260 W/m² | - |
| 1778340965 | 17.22° C | 43% | 1018.1 hPa | 0 mm | - | 474 W/m² | - |
| 1778340425 | 17.22° C | 44% | 1018.1 hPa | 0 mm | - | 483 W/m² | - |
| 1778339885 | 17.22° C | 45% | 1018.2 hPa | 0 mm | - | 463 W/m² | - |
| 1778339345 | 17.22° C | 45% | 1018.2 hPa | 0 mm | - | 429 W/m² | - |
| 1778338805 | 17.78° C | 44% | 1018.2 hPa | 0 mm | - | 482 W/m² | - |
| 1778338445 | 17.22° C | 44% | 1018.2 hPa | 0 mm | - | 450 W/m² | - |
| 1778337905 | 17.22° C | 46% | 1018.2 hPa | 0 mm | - | 382 W/m² | - |
| 1778337365 | 17.78° C | 45% | 1018 hPa | 0 mm | - | 517 W/m² | - |
| 1778336825 | 17.78° C | 45% | 1018.4 hPa | 0 mm | - | 463 W/m² | - |
| 1778336285 | 17.78° C | 44% | 1018.3 hPa | 0 mm | - | 453 W/m² | - |
| 1778335745 | 18.33° C | 44% | 1018.3 hPa | 0 mm | - | 491 W/m² | - |
| 1778335205 | 17.78° C | 43% | 1018.3 hPa | 0 mm | - | 520 W/m² | - |
| 1778334845 | 17.78° C | 43% | 1018.5 hPa | 0 mm | - | 485 W/m² | - |
| 1778334305 | 18.33° C | 42% | 1018.5 hPa | 0 mm | - | 555 W/m² | - |
| 1778333765 | 18.89° C | 41% | 1018.3 hPa | 0 mm | - | 596 W/m² | - |
| 1778333225 | 18.33° C | 43% | 1018.3 hPa | 0 mm | - | 480 W/m² | - |
| 1778332685 | 18.33° C | 41% | 1018.5 hPa | 0 mm | - | 608 W/m² | - |
| 1778332145 | 18.33° C | 41% | 1018.2 hPa | 0 mm | - | 550 W/m² | - |
* Rain latest hour (hover to see other rain measurements)
** Current wind speed in m/s (hover to see current wind gust speed)